• In Belarus
  • List of Countries
  • For 7 days
  • Water Temperature
  • Satellite Maps
  • Weather Map
  • Weather Widgets
  • user-avatar
    Login

    Hourly Weather Louangphabang

    Today, 20 February, Wednesday

    Time Temperature Precipitation Wind Pressure Humidity
    00:00 +19°C° 0.1 mm 0 mps 700 mmHg 81%
    01:00 +21°C° 0 mm 1 mps 700 mmHg 82%
    02:00 +18°C° 0 mm 0 mps 700 mmHg 84%
    03:00 +18°C° 0 mm 0 mps 699 mmHg 86%
    04:00 +17°C° 0 mm 0 mps 699 mmHg 88%
    05:00 +17°C° 0 mm 0 mps 700 mmHg 89%
    06:00 +17°C° 0 mm 0 mps 700 mmHg 89%
    07:00 +17°C° 0 mm 0 mps 700 mmHg 89%
    08:00 +21°C° 0 mm 0 mps 701 mmHg 76%
    09:00 +24°C° 0 mm 0 mps 702 mmHg 62%
    10:00 +29°C° 0 mm 1 mps 703 mmHg 48%
    11:00 +30°C° 0 mm 1 mps 702 mmHg 41%
    12:00 +32°C° 0 mm 1 mps 702 mmHg 34%
    13:00 +34°C° 0 mm 2 mps 701 mmHg 27%
    14:00 +34°C° 0 mm 2 mps 700 mmHg 27%
    15:00 +34°C° 0 mm 2 mps 700 mmHg 27%
    16:00 +34°C° 0 mm 2 mps 699 mmHg 27%
    17:00 +30°C° 0 mm 1 mps 699 mmHg 35%
    18:00 +27°C° 0 mm 1 mps 699 mmHg 43%
    19:00 +24°C° 0 mm 1 mps 699 mmHg 51%
    20:00 +24°C° 0 mm 1 mps 699 mmHg 54%
    21:00 +21°C° 0 mm 0 mps 700 mmHg 57%
    22:00 +20°C° 0 mm 0 mps 700 mmHg 60%
    23:00 +19°C° 0 mm 0 mps 700 mmHg 62%

    Tomorrow, 21 February, Thursday

    Time Temperature Precipitation Wind Pressure Humidity
    00:00 +19°C° 0 mm 0 mps 700 mmHg 63%
    01:00 +19°C° 0 mm 0 mps 700 mmHg 65%
    02:00 +18°C° 0 mm 0 mps 700 mmHg 67%
    03:00 +18°C° 0 mm 0 mps 699 mmHg 68%
    04:00 +18°C° 0 mm 0 mps 699 mmHg 70%
    05:00 +17°C° 0 mm 0 mps 699 mmHg 71%
    06:00 +17°C° 0 mm 0 mps 700 mmHg 72%
    07:00 +17°C° 0 mm 0 mps 700 mmHg 73%
    08:00 +21°C° 0 mm 0 mps 701 mmHg 60%
    09:00 +25°C° 0 mm 0 mps 702 mmHg 47%
    10:00 +29°C° 0 mm 0 mps 703 mmHg 34%
    11:00 +32°C° 0 mm 1 mps 702 mmHg 30%
    12:00 +33°C° 0 mm 1 mps 702 mmHg 25%
    13:00 +35°C° 0 mm 1 mps 701 mmHg 21%
    14:00 +35°C° 0 mm 1 mps 700 mmHg 21%
    15:00 +35°C° 0 mm 1 mps 699 mmHg 21%
    16:00 +34°C° 0 mm 1 mps 699 mmHg 21%
    17:00 +31°C° 0 mm 1 mps 698 mmHg 27%
    18:00 +26°C° 0 mm 0 mps 698 mmHg 34%
    19:00 +23°C° 0 mm 0 mps 698 mmHg 40%
    20:00 +22°C° 0 mm 0 mps 699 mmHg 43%
    21:00 +21°C° 0 mm 0 mps 699 mmHg 46%
    22:00 +20°C° 0 mm 0 mps 699 mmHg 49%
    23:00 +20°C° 0 mm 0 mps 699 mmHg 51%

    Day after tomorrow, 22 February, Friday

    Time Temperature Precipitation Wind Pressure Humidity
    00:00 +19°C° 0 mm 0 mps 699 mmHg 52%
    01:00 +19°C° 0 mm 0 mps 698 mmHg 54%
    02:00 +19°C° 0 mm 0 mps 698 mmHg 55%
    03:00 +18°C° 0 mm 0 mps 698 mmHg 56%
    04:00 +18°C° 0 mm 0 mps 697 mmHg 57%
    05:00 +18°C° 0 mm 0 mps 698 mmHg 58%
    06:00 +17°C° 0 mm 0 mps 698 mmHg 59%
    07:00 +17°C° 0 mm 0 mps 698 mmHg 60%
    08:00 +22°C° 0 mm 0 mps 699 mmHg 50%
    09:00 +26°C° 0 mm 0 mps 700 mmHg 40%
    10:00 +30°C° 0 mm 0 mps 701 mmHg 29%
    11:00 +33°C° 0 mm 1 mps 701 mmHg 26%
    12:00 +35°C° 0 mm 1 mps 700 mmHg 23%
    13:00 +36°C° 0 mm 1 mps 699 mmHg 19%
    14:00 +36°C° 0 mm 1 mps 698 mmHg 19%
    15:00 +35°C° 0 mm 1 mps 697 mmHg 19%
    16:00 +35°C° 0 mm 1 mps 696 mmHg 20%
    17:00 +32°C° 0 mm 1 mps 696 mmHg 26%
    18:00 +29°C° 0 mm 1 mps 696 mmHg 33%
    19:00 +26°C° 0 mm 1 mps 696 mmHg 40%
    20:00 +25°C° 0 mm 1 mps 697 mmHg 42%
    21:00 +24°C° 0 mm 1 mps 697 mmHg 45%
    22:00 +23°C° 0 mm 1 mps 698 mmHg 48%
    23:00 +23°C° 0 mm 1 mps 698 mmHg 49%

    23 February, Saturday

    Time Temperature Precipitation Wind Pressure Humidity
    00:00 +22°C° 0 mm 1 mps 697 mmHg 51%
    01:00 +22°C° 0 mm 1 mps 697 mmHg 52%
    02:00 +20°C° 0 mm 0 mps 697 mmHg 53%
    03:00 +19°C° 0 mm 0 mps 696 mmHg 54%
    04:00 +19°C° 0 mm 0 mps 696 mmHg 56%
    05:00 +19°C° 0 mm 0 mps 697 mmHg 57%
    06:00 +18°C° 0 mm 0 mps 697 mmHg 58%
    07:00 +18°C° 0 mm 0 mps 698 mmHg 59%
    08:00 +22°C° 0 mm 0 mps 698 mmHg 50%
    09:00 +26°C° 0 mm 0 mps 699 mmHg 41%
    10:00 +32°C° 0 mm 1 mps 700 mmHg 31%
    11:00 +33°C° 0 mm 1 mps 699 mmHg 29%
    12:00 +34°C° 0 mm 1 mps 699 mmHg 26%
    13:00 +36°C° 0 mm 2 mps 698 mmHg 24%
    14:00 +36°C° 0 mm 2 mps 697 mmHg 23%
    15:00 +36°C° 0 mm 2 mps 696 mmHg 23%
    16:00 +35°C° 0 mm 1 mps 695 mmHg 22%
    17:00 +32°C° 0 mm 1 mps 696 mmHg 29%
    18:00 +29°C° 0 mm 1 mps 696 mmHg 36%
    19:00 +26°C° 0 mm 1 mps 696 mmHg 43%
    20:00 +25°C° 0 mm 1 mps 696 mmHg 47%
    21:00 +25°C° 0 mm 1 mps 697 mmHg 50%
    22:00 +24°C° 0 mm 1 mps 697 mmHg 54%
    23:00 +23°C° 0 mm 1 mps 697 mmHg 55%

    24 February, Sunday

    Time Temperature Precipitation Wind Pressure Humidity
    00:00 +23°C° 0 mm 1 mps 697 mmHg 57%
    01:00 +22°C° 0 mm 1 mps 697 mmHg 59%
    02:00 +20°C° 0 mm 0 mps 696 mmHg 60%
    03:00 +20°C° 0 mm 0 mps 696 mmHg 62%
    04:00 +19°C° 0 mm 0 mps 696 mmHg 63%
    05:00 +19°C° 0 mm 0 mps 696 mmHg 64%
    06:00 +19°C° 0 mm 0 mps 697 mmHg 65%
    07:00 +19°C° 0 mm 0 mps 698 mmHg 66%
    08:00 +23°C° 0 mm 0 mps 698 mmHg 56%
    09:00 +28°C° 0 mm 1 mps 699 mmHg 45%
    10:00 +32°C° 0 mm 1 mps 700 mmHg 35%
    11:00 +33°C° 0 mm 1 mps 699 mmHg 32%
    12:00 +35°C° 0 mm 2 mps 699 mmHg 28%
    13:00 +36°C° 0 mm 2 mps 698 mmHg 25%
    14:00 +36°C° 0 mm 2 mps 697 mmHg 25%
    15:00 +36°C° 0 mm 2 mps 696 mmHg 25%
    16:00 +36°C° 0 mm 2 mps 696 mmHg 25%
    17:00 +33°C° 0 mm 1 mps 696 mmHg 32%
    18:00 +30°C° 0 mm 1 mps 696 mmHg 39%
    19:00 +27°C° 0 mm 1 mps 696 mmHg 46%
    20:00 +26°C° 0 mm 1 mps 696 mmHg 51%
    21:00 +25°C° 0 mm 1 mps 697 mmHg 56%
    22:00 +24°C° 0 mm 1 mps 697 mmHg 61%
    23:00 +24°C° 0 mm 1 mps 697 mmHg 63%

    25 February, Monday

    Time Temperature Precipitation Wind Pressure Humidity
    00:00 +23°C° 0 mm 1 mps 696 mmHg 66%
    01:00 +23°C° 0 mm 1 mps 696 mmHg 69%
    02:00 +22°C° 0 mm 1 mps 696 mmHg 70%
    03:00 +22°C° 0 mm 1 mps 696 mmHg 72%
    04:00 +22°C° 0 mm 1 mps 696 mmHg 73%
    05:00 +22°C° 0.1 mm 1 mps 696 mmHg 74%
    06:00 +20°C° 0.1 mm 0 mps 697 mmHg 75%
    07:00 +20°C° 0.1 mm 0 mps 697 mmHg 76%
    08:00 +25°C° 0.1 mm 1 mps 698 mmHg 66%
    09:00 +28°C° 0.1 mm 1 mps 699 mmHg 56%
    10:00 +31°C° 0.1 mm 2 mps 699 mmHg 47%
    11:00 +32°C° 0.2 mm 2 mps 699 mmHg 44%
    12:00 +34°C° 0.2 mm 2 mps 698 mmHg 41%
    13:00 +34°C° 0.2 mm 2 mps 697 mmHg 37%
    14:00 +34°C° 0 mm 2 mps 697 mmHg 37%
    15:00 +34°C° 0 mm 2 mps 696 mmHg 37%
    16:00 +34°C° 0 mm 2 mps 696 mmHg 37%
    17:00 +31°C° 0 mm 2 mps 696 mmHg 44%
    18:00 +29°C° 0 mm 1 mps 696 mmHg 52%
    19:00 +26°C° 0 mm 1 mps 696 mmHg 60%
    20:00 +25°C° 0.4 mm 1 mps 696 mmHg 66%
    21:00 +24°C° 0.4 mm 1 mps 697 mmHg 71%
    22:00 +23°C° 0.4 mm 1 mps 697 mmHg 77%
    23:00 +23°C° 0.3 mm 1 mps 697 mmHg 80%
    Show more